Time,TemperatureF,DewpointF,PressureIn,WindDirection,WindDirectionDegrees,WindSpeedMPH,WindSpeedGustMPH,Humidity,HourlyPrecipIn,Conditions,Clouds,dailyrainin,SoftwareType,DateUTC
2013-10-12 00:03:00,60.9,46.5,29.89,North,355,10.0,12.0,59,0.00,,,0.00,Wunderground v.1.15,2013-10-12 05:03:00,
2013-10-12 00:08:00,60.6,46.2,29.89,North,355,10.0,13.0,59,0.00,,,0.00,Wunderground v.1.15,2013-10-12 05:08:00,
2013-10-12 00:13:00,60.4,46.4,29.89,North,5,10.0,13.0,60,0.00,,,0.00,Wunderground v.1.15,2013-10-12 05:13:00,
2013-10-12 00:18:00,60.4,46.4,29.89,North,360,11.0,17.0,60,0.00,,,0.00,Wunderground v.1.15,2013-10-12 05:18:00,
2013-10-12 00:23:00,60.5,46.1,29.89,North,10,12.0,18.0,59,0.00,,,0.00,Wunderground v.1.15,2013-10-12 05:23:00,
2013-10-12 00:29:00,60.4,46.4,29.89,NNE,14,13.0,18.0,60,0.00,,,0.00,Wunderground v.1.15,2013-10-12 05:29:00,
2013-10-12 00:35:00,60.2,46.3,29.90,North,355,12.0,16.0,60,0.00,,,0.00,Wunderground v.1.15,2013-10-12 05:35:00,
2013-10-12 00:41:00,60.0,46.1,29.90,North,360,12.0,17.0,60,0.00,,,0.00,Wunderground v.1.15,2013-10-12 05:41:00,
2013-10-12 00:47:00,59.8,46.3,29.90,North,360,12.0,17.0,61,0.00,,,0.00,Wunderground v.1.15,2013-10-12 05:47:00,
2013-10-12 00:53:00,59.6,46.1,29.90,NNE,23,12.0,16.0,61,0.00,,,0.00,Wunderground v.1.15,2013-10-12 05:53:00,
2013-10-12 00:58:00,59.4,46.4,29.90,North,355,12.0,17.0,62,0.00,,,0.00,Wunderground v.1.15,2013-10-12 05:58:00,
2013-10-12 01:03:00,59.3,46.3,29.90,NNE,15,12.0,15.0,62,0.00,,,0.00,Wunderground v.1.15,2013-10-12 06:03:00,
2013-10-12 01:08:00,59.1,46.1,29.90,NNE,24,12.0,16.0,62,0.00,,,0.00,Wunderground v.1.15,2013-10-12 06:08:00,
2013-10-12 01:14:00,58.9,45.9,29.91,NNE,19,13.0,17.0,62,0.00,,,0.00,Wunderground v.1.15,2013-10-12 06:14:00,
2013-10-12 01:20:00,58.6,46.0,29.91,NNE,28,11.0,13.0,63,0.00,,,0.00,Wunderground v.1.15,2013-10-12 06:20:00,
2013-10-12 01:25:00,58.6,46.0,29.91,NNE,24,11.0,16.0,63,0.00,,,0.00,Wunderground v.1.15,2013-10-12 06:25:00,
2013-10-12 01:31:00,58.5,45.9,29.92,NE,49,11.0,12.0,63,0.00,,,0.00,Wunderground v.1.15,2013-10-12 06:31:00,
2013-10-12 01:37:00,58.0,45.9,29.93,NE,42,9.0,12.0,64,0.00,,,0.00,Wunderground v.1.15,2013-10-12 06:37:00,
2013-10-12 01:43:00,57.5,45.8,29.93,NE,38,9.0,10.0,65,0.00,,,0.00,Wunderground v.1.15,2013-10-12 06:43:00,
2013-10-12 01:48:00,57.3,46.0,29.93,NE,41,8.0,11.0,66,0.00,,,0.00,Wunderground v.1.15,2013-10-12 06:48:00,
2013-10-12 01:53:00,57.2,45.9,29.93,NNE,22,9.0,10.0,66,0.00,,,0.00,Wunderground v.1.15,2013-10-12 06:53:00,
2013-10-12 01:59:00,57.1,45.8,29.94,NE,40,8.0,11.0,66,0.00,,,0.00,Wunderground v.1.15,2013-10-12 06:59:00,
2013-10-12 02:04:00,56.8,46.0,29.94,NE,37,8.0,11.0,67,0.00,,,0.00,Wunderground v.1.15,2013-10-12 07:04:00,
2013-10-12 02:09:00,56.6,45.8,29.94,NNE,28,8.0,11.0,67,0.00,,,0.00,Wunderground v.1.15,2013-10-12 07:09:00,
2013-10-12 02:14:00,56.9,45.7,29.94,NE,34,9.0,12.0,66,0.00,,,0.00,Wunderground v.1.15,2013-10-12 07:14:00,
2013-10-12 02:19:00,57.0,45.3,29.94,NNE,22,10.0,12.0,65,0.00,,,0.00,Wunderground v.1.15,2013-10-12 07:19:00,
2013-10-12 02:24:00,56.9,45.3,29.95,NNE,28,10.0,12.0,65,0.00,,,0.00,Wunderground v.1.15,2013-10-12 07:24:00,
2013-10-12 02:31:00,56.8,45.2,29.95,NNE,13,10.0,13.0,65,0.00,,,0.00,Wunderground v.1.15,2013-10-12 07:31:00,
2013-10-12 02:36:00,56.8,45.2,29.95,NNE,24,11.0,14.0,65,0.00,,,0.00,Wunderground v.1.15,2013-10-12 07:36:00,
2013-10-12 02:42:00,56.8,45.2,29.95,NNE,16,11.0,13.0,65,0.00,,,0.00,Wunderground v.1.15,2013-10-12 07:42:00,
2013-10-12 02:47:00,56.6,45.0,29.95,NNE,16,10.0,14.0,65,0.00,,,0.00,Wunderground v.1.15,2013-10-12 07:47:00,
2013-10-12 02:52:00,56.4,45.2,29.95,NNE,16,10.0,11.0,66,0.00,,,0.00,Wunderground v.1.15,2013-10-12 07:52:00,
2013-10-12 02:57:00,56.4,44.8,29.95,NNE,15,11.0,15.0,65,0.00,,,0.00,Wunderground v.1.15,2013-10-12 07:57:00,
2013-10-12 03:02:00,56.3,44.7,29.95,NNE,19,11.0,14.0,65,0.00,,,0.00,Wunderground v.1.15,2013-10-12 08:02:00,
2013-10-12 03:08:00,56.2,44.6,29.95,NNE,21,11.0,15.0,65,0.00,,,0.00,Wunderground v.1.15,2013-10-12 08:08:00,
2013-10-12 03:13:00,56.3,44.7,29.95,NNE,27,12.0,16.0,65,0.00,,,0.00,Wunderground v.1.15,2013-10-12 08:13:00,
2013-10-12 03:19:00,56.3,44.3,29.96,NNE,20,12.0,16.0,64,0.00,,,0.00,Wunderground v.1.15,2013-10-12 08:19:00,
2013-10-12 03:25:00,56.1,44.5,29.96,NE,42,12.0,14.0,65,0.00,,,0.00,Wunderground v.1.15,2013-10-12 08:25:00,
2013-10-12 03:31:00,56.1,44.5,29.96,NNE,31,11.0,15.0,65,0.00,,,0.00,Wunderground v.1.15,2013-10-12 08:31:00,
2013-10-12 03:36:00,55.9,44.3,29.96,NNE,27,11.0,17.0,65,0.00,,,0.00,Wunderground v.1.15,2013-10-12 08:36:00,
2013-10-12 03:41:00,55.9,43.9,29.96,NNE,23,11.0,14.0,64,0.00,,,0.00,Wunderground v.1.15,2013-10-12 08:41:00,
2013-10-12 03:46:00,56.0,44.0,29.96,NNE,29,12.0,15.0,64,0.00,,,0.00,Wunderground v.1.15,2013-10-12 08:46:00,
2013-10-12 03:51:00,55.9,43.9,29.97,NNE,24,12.0,13.0,64,0.00,,,0.00,Wunderground v.1.15,2013-10-12 08:51:00,
2013-10-12 03:56:00,55.9,43.9,29.97,NE,38,12.0,14.0,64,0.00,,,0.00,Wunderground v.1.15,2013-10-12 08:56:00,
2013-10-12 04:02:00,55.9,43.5,29.97,NNE,24,12.0,14.0,63,0.00,,,0.00,Wunderground v.1.15,2013-10-12 09:02:00,
2013-10-12 04:08:00,55.8,43.4,29.97,NNE,24,13.0,17.0,63,0.00,,,0.00,Wunderground v.1.15,2013-10-12 09:08:00,
2013-10-12 04:14:00,55.7,43.3,29.97,NNE,25,13.0,17.0,63,0.00,,,0.00,Wunderground v.1.15,2013-10-12 09:14:00,
2013-10-12 04:19:00,55.8,43.0,29.97,NNE,31,13.0,18.0,62,0.00,,,0.00,Wunderground v.1.15,2013-10-12 09:19:00,
2013-10-12 04:25:00,55.9,43.1,29.97,NNE,28,14.0,19.0,62,0.00,,,0.00,Wunderground v.1.15,2013-10-12 09:25:00,
2013-10-12 04:30:00,55.8,43.0,29.97,NNE,27,13.0,17.0,62,0.00,,,0.00,Wunderground v.1.15,2013-10-12 09:30:00,
2013-10-12 04:35:00,55.7,42.9,29.98,NNE,30,13.0,18.0,62,0.00,,,0.00,Wunderground v.1.15,2013-10-12 09:35:00,
2013-10-12 04:41:00,55.5,42.7,29.98,NNE,15,13.0,16.0,62,0.00,,,0.00,Wunderground v.1.15,2013-10-12 09:41:00,
2013-10-12 04:47:00,55.4,42.6,29.98,NE,40,12.0,19.0,62,0.00,,,0.00,Wunderground v.1.15,2013-10-12 09:47:00,
2013-10-12 04:52:00,55.1,42.7,29.99,NNE,29,11.0,12.0,63,0.00,,,0.00,Wunderground v.1.15,2013-10-12 09:52:00,
2013-10-12 04:57:00,54.9,42.5,29.99,NNE,29,10.0,14.0,63,0.00,,,0.00,Wunderground v.1.15,2013-10-12 09:57:00,
2013-10-12 05:03:00,54.5,42.6,30.00,NE,51,10.0,13.0,64,0.00,,,0.00,Wunderground v.1.15,2013-10-12 10:03:00,
2013-10-12 05:09:00,54.6,42.7,30.00,NE,40,10.0,15.0,64,0.00,,,0.00,Wunderground v.1.15,2013-10-12 10:09:00,
2013-10-12 05:14:00,54.6,43.1,30.00,NE,43,11.0,15.0,65,0.00,,,0.00,Wunderground v.1.15,2013-10-12 10:14:00,
2013-10-12 05:19:00,54.5,43.0,30.00,NNE,32,11.0,16.0,65,0.00,,,0.00,Wunderground v.1.15,2013-10-12 10:19:00,
2013-10-12 05:25:00,54.6,42.7,30.01,NE,35,12.0,16.0,64,0.00,,,0.00,Wunderground v.1.15,2013-10-12 10:25:00,
2013-10-12 05:31:00,54.5,42.6,30.01,NNE,32,12.0,14.0,64,0.00,,,0.00,Wunderground v.1.15,2013-10-12 10:31:00,
2013-10-12 05:36:00,54.3,42.4,30.01,NE,38,11.0,15.0,64,0.00,,,0.00,Wunderground v.1.15,2013-10-12 10:36:00,
2013-10-12 05:41:00,54.0,42.1,30.02,NNE,30,10.0,13.0,64,0.00,,,0.00,Wunderground v.1.15,2013-10-12 10:41:00,
2013-10-12 05:47:00,54.0,42.1,30.02,NNE,33,10.0,15.0,64,0.00,,,0.00,Wunderground v.1.15,2013-10-12 10:47:00,
2013-10-12 05:52:00,53.9,41.6,30.02,NNE,30,10.0,12.0,63,0.00,,,0.00,Wunderground v.1.15,2013-10-12 10:52:00,
2013-10-12 05:58:00,53.7,41.8,30.02,NNE,28,9.0,12.0,64,0.00,,,0.00,Wunderground v.1.15,2013-10-12 10:58:00,
2013-10-12 06:04:00,53.5,41.6,30.03,NE,40,9.0,11.0,64,0.00,,,0.00,Wunderground v.1.15,2013-10-12 11:04:00,
2013-10-12 06:10:00,53.2,41.7,30.03,NE,46,8.0,12.0,65,0.00,,,0.00,Wunderground v.1.15,2013-10-12 11:10:00,
2013-10-12 06:15:00,53.3,41.4,30.03,NE,42,9.0,15.0,64,0.00,,,0.00,Wunderground v.1.15,2013-10-12 11:15:00,
2013-10-12 06:20:00,53.3,41.0,30.03,NE,49,9.0,9.0,63,0.00,,,0.00,Wunderground v.1.15,2013-10-12 11:20:00,
2013-10-12 06:26:00,53.3,41.0,30.03,NE,35,8.0,12.0,63,0.00,,,0.00,Wunderground v.1.15,2013-10-12 11:26:00,
2013-10-12 06:31:00,53.0,41.1,30.03,NE,40,8.0,9.0,64,0.00,,,0.00,Wunderground v.1.15,2013-10-12 11:31:00,
2013-10-12 06:36:00,52.7,40.9,30.04,NE,40,8.0,11.0,64,0.00,,,0.00,Wunderground v.1.15,2013-10-12 11:36:00,
2013-10-12 06:41:00,52.6,40.8,30.04,NE,40,8.0,11.0,64,0.00,,,0.00,Wunderground v.1.15,2013-10-12 11:41:00,
2013-10-12 06:46:00,52.6,40.8,30.04,NE,42,9.0,11.0,64,0.00,,,0.00,Wunderground v.1.15,2013-10-12 11:46:00,
2013-10-12 06:51:00,52.7,40.9,30.04,NE,40,9.0,10.0,64,0.00,,,0.00,Wunderground v.1.15,2013-10-12 11:51:00,
2013-10-12 06:56:00,52.9,40.6,30.05,NE,34,9.0,13.0,63,0.00,,,0.00,Wunderground v.1.15,2013-10-12 11:56:00,
2013-10-12 07:03:00,53.1,40.8,30.05,NNE,31,10.0,13.0,63,0.00,,,0.00,Wunderground v.1.15,2013-10-12 12:03:00,
2013-10-12 07:08:00,53.2,40.5,30.05,NNE,24,10.0,13.0,62,0.00,,,0.00,Wunderground v.1.15,2013-10-12 12:08:00,
2013-10-12 07:13:00,53.1,40.4,30.05,NNE,25,10.0,14.0,62,0.00,,,0.00,Wunderground v.1.15,2013-10-12 12:13:00,
2013-10-12 07:18:00,53.0,40.3,30.05,NNE,23,10.0,14.0,62,0.00,,,0.00,Wunderground v.1.15,2013-10-12 12:18:00,
2013-10-12 07:24:00,53.0,40.3,30.06,NNE,28,10.0,12.0,62,0.00,,,0.00,Wunderground v.1.15,2013-10-12 12:24:00,
2013-10-12 07:30:00,52.8,40.5,30.06,NE,40,9.0,9.0,63,0.00,,,0.00,Wunderground v.1.15,2013-10-12 12:30:00,
2013-10-12 07:36:00,52.4,40.6,30.06,NE,36,9.0,13.0,64,0.00,,,0.00,Wunderground v.1.15,2013-10-12 12:36:00,
2013-10-12 07:41:00,52.4,40.6,30.07,NE,36,9.0,10.0,64,0.00,,,0.00,Wunderground v.1.15,2013-10-12 12:41:00,
2013-10-12 07:47:00,52.4,41.0,30.07,NNE,32,9.0,12.0,65,0.00,,,0.00,Wunderground v.1.15,2013-10-12 12:47:00,
2013-10-12 07:53:00,52.1,40.7,30.07,NNE,31,8.0,11.0,65,0.00,,,0.00,Wunderground v.1.15,2013-10-12 12:53:00,
2013-10-12 07:59:00,51.9,41.3,30.08,North,355,7.0,12.0,67,0.00,,,0.00,Wunderground v.1.15,2013-10-12 12:59:00,
2013-10-12 08:05:00,51.0,41.2,30.09,North,360,7.0,8.0,69,0.00,,,0.00,Wunderground v.1.15,2013-10-12 13:05:00,
2013-10-12 08:10:00,50.4,41.3,30.09,North,5,6.0,8.0,71,0.00,,,0.00,Wunderground v.1.15,2013-10-12 13:10:00,
2013-10-12 08:15:00,50.1,41.4,30.10,North,355,7.0,9.0,72,0.00,,,0.00,Wunderground v.1.15,2013-10-12 13:15:00,
2013-10-12 08:20:00,50.1,41.4,30.11,North,350,7.0,9.0,72,0.00,,,0.00,Wunderground v.1.15,2013-10-12 13:20:00,
2013-10-12 08:26:00,50.0,41.7,30.11,North,9,8.0,10.0,73,0.00,,,0.00,Wunderground v.1.15,2013-10-12 13:26:00,
2013-10-12 08:32:00,50.0,41.7,30.12,North,5,7.0,10.0,73,0.00,,,0.00,Wunderground v.1.15,2013-10-12 13:32:00,
2013-10-12 08:38:00,50.4,42.1,30.12,North,9,8.0,11.0,73,0.00,,,0.00,Wunderground v.1.15,2013-10-12 13:38:00,
2013-10-12 08:44:00,50.9,42.2,30.12,North,5,8.0,12.0,72,0.00,,,0.00,Wunderground v.1.15,2013-10-12 13:44:00,
2013-10-12 08:50:00,51.2,42.8,30.13,NNE,16,8.0,8.0,73,0.00,,,0.00,Wunderground v.1.15,2013-10-12 13:50:00,
2013-10-12 08:55:00,51.7,42.6,30.13,North,5,10.0,14.0,71,0.00,,,0.00,Wunderground v.1.15,2013-10-12 13:55:00,
2013-10-12 09:00:00,52.0,42.9,30.13,NNE,20,10.0,11.0,71,0.00,,,0.00,Wunderground v.1.15,2013-10-12 14:00:00,
2013-10-12 09:06:00,52.4,42.9,30.13,NNE,17,9.0,12.0,70,0.00,,,0.00,Wunderground v.1.15,2013-10-12 14:06:00,
2013-10-12 09:12:00,52.7,43.2,30.13,NNE,29,9.0,11.0,70,0.00,,,0.00,Wunderground v.1.15,2013-10-12 14:12:00,
2013-10-12 09:17:00,53.2,43.3,30.14,NNE,30,8.0,11.0,69,0.00,,,0.00,Wunderground v.1.15,2013-10-12 14:17:00,
2013-10-12 09:23:00,53.6,43.3,30.14,NE,35,9.0,11.0,68,0.00,,,0.00,Wunderground v.1.15,2013-10-12 14:23:00,
2013-10-12 09:28:00,54.6,43.9,30.13,NNE,32,9.0,13.0,67,0.00,,,0.00,Wunderground v.1.15,2013-10-12 14:28:00,
2013-10-12 09:34:00,55.5,43.9,30.14,NNE,33,9.0,12.0,65,0.00,,,0.00,Wunderground v.1.15,2013-10-12 14:34:00,
2013-10-12 09:40:00,56.3,43.4,30.14,NE,38,11.0,11.0,62,0.00,,,0.00,Wunderground v.1.15,2013-10-12 14:40:00,
2013-10-12 09:45:00,56.9,43.6,30.14,NE,44,12.0,17.0,61,0.00,,,0.00,Wunderground v.1.15,2013-10-12 14:45:00,
2013-10-12 09:50:00,57.5,43.7,30.14,NE,38,12.0,12.0,60,0.00,,,0.00,Wunderground v.1.15,2013-10-12 14:50:00,
2013-10-12 09:56:00,58.0,42.8,30.15,NE,47,11.0,15.0,57,0.00,,,0.00,Wunderground v.1.15,2013-10-12 14:56:00,
2013-10-12 10:02:00,58.6,43.4,30.15,NE,53,12.0,16.0,57,0.00,,,0.00,Wunderground v.1.15,2013-10-12 15:02:00,
2013-10-12 10:07:00,59.0,42.8,30.15,NE,49,12.0,17.0,55,0.00,,,0.00,Wunderground v.1.15,2013-10-12 15:07:00,
2013-10-12 10:12:00,59.7,43.0,30.15,ENE,59,12.0,15.0,54,0.00,,,0.00,Wunderground v.1.15,2013-10-12 15:12:00,
2013-10-12 10:18:00,60.1,42.4,30.16,ENE,59,15.0,22.0,52,0.00,,,0.00,Wunderground v.1.15,2013-10-12 15:18:00,
2013-10-12 10:24:00,60.5,42.3,30.16,ENE,63,16.0,23.0,51,0.00,,,0.00,Wunderground v.1.15,2013-10-12 15:24:00,
2013-10-12 10:30:00,60.7,42.5,30.16,NE,42,15.0,23.0,51,0.00,,,0.00,Wunderground v.1.15,2013-10-12 15:30:00,
2013-10-12 10:35:00,60.8,42.5,30.16,NE,40,16.0,24.0,51,0.00,,,0.00,Wunderground v.1.15,2013-10-12 15:35:00,
2013-10-12 10:41:00,61.1,42.3,30.16,NE,56,16.0,23.0,50,0.00,,,0.00,Wunderground v.1.15,2013-10-12 15:41:00,
2013-10-12 10:46:00,61.2,42.9,30.16,ENE,60,16.0,23.0,51,0.00,,,0.00,Wunderground v.1.15,2013-10-12 15:46:00,
2013-10-12 10:51:00,61.4,42.6,30.16,NE,52,14.0,16.0,50,0.00,,,0.00,Wunderground v.1.15,2013-10-12 15:51:00,
2013-10-12 10:57:00,61.4,42.6,30.16,NE,49,13.0,22.0,50,0.00,,,0.00,Wunderground v.1.15,2013-10-12 15:57:00,
2013-10-12 11:03:00,61.6,42.8,30.17,NE,47,15.0,21.0,50,0.00,,,0.00,Wunderground v.1.15,2013-10-12 16:03:00,
2013-10-12 11:08:00,61.7,43.4,30.16,NE,49,16.0,21.0,51,0.00,,,0.00,Wunderground v.1.15,2013-10-12 16:08:00,
2013-10-12 11:13:00,61.8,43.0,30.17,NE,35,16.0,19.0,50,0.00,,,0.00,Wunderground v.1.15,2013-10-12 16:13:00,
2013-10-12 11:18:00,61.9,43.6,30.17,NE,47,15.0,19.0,51,0.00,,,0.00,Wunderground v.1.15,2013-10-12 16:18:00,
2013-10-12 11:24:00,62.5,43.6,30.17,NNE,26,14.0,20.0,50,0.00,,,0.00,Wunderground v.1.15,2013-10-12 16:24:00,
2013-10-12 11:29:00,62.3,43.4,30.17,NNE,23,15.0,21.0,50,0.00,,,0.00,Wunderground v.1.15,2013-10-12 16:29:00,
2013-10-12 11:35:00,62.3,42.3,30.17,NNE,21,16.0,20.0,48,0.00,,,0.00,Wunderground v.1.15,2013-10-12 16:35:00,
2013-10-12 11:40:00,62.6,42.6,30.17,NNE,21,16.0,16.0,48,0.00,,,0.00,Wunderground v.1.15,2013-10-12 16:40:00,
2013-10-12 11:46:00,63.1,43.1,30.17,NE,34,16.0,21.0,48,0.00,,,0.00,Wunderground v.1.15,2013-10-12 16:46:00,
2013-10-12 11:51:00,63.1,43.1,30.17,NNE,30,15.0,15.0,48,0.00,,,0.00,Wunderground v.1.15,2013-10-12 16:51:00,
2013-10-12 11:56:00,63.3,42.2,30.17,NNE,31,15.0,19.0,46,0.00,,,0.00,Wunderground v.1.15,2013-10-12 16:56:00,
2013-10-12 12:02:00,63.4,43.4,30.17,NE,38,15.0,20.0,48,0.00,,,0.00,Wunderground v.1.15,2013-10-12 17:02:00,
2013-10-12 12:07:00,64.0,43.4,30.17,NE,48,15.0,20.0,47,0.00,,,0.00,Wunderground v.1.15,2013-10-12 17:07:00,
2013-10-12 12:13:00,64.1,42.9,30.17,NE,45,14.0,19.0,46,0.00,,,0.00,Wunderground v.1.15,2013-10-12 17:13:00,
2013-10-12 12:18:00,64.1,42.3,30.17,NE,42,15.0,20.0,45,0.00,,,0.00,Wunderground v.1.15,2013-10-12 17:18:00,
2013-10-12 12:24:00,64.5,43.3,30.17,NE,50,15.0,19.0,46,0.00,,,0.00,Wunderground v.1.15,2013-10-12 17:24:00,
2013-10-12 12:29:00,64.9,43.0,30.17,NE,34,15.0,20.0,45,0.00,,,0.00,Wunderground v.1.15,2013-10-12 17:29:00,
2013-10-12 12:35:00,64.8,43.5,30.17,NE,44,14.0,17.0,46,0.00,,,0.00,Wunderground v.1.15,2013-10-12 17:35:00,
2013-10-12 12:40:00,64.4,42.6,30.17,North,5,13.0,13.0,45,0.00,,,0.00,Wunderground v.1.15,2013-10-12 17:40:00,
2013-10-12 12:46:00,65.0,43.1,30.17,NNE,21,13.0,19.0,45,0.00,,,0.00,Wunderground v.1.15,2013-10-12 17:46:00,
2013-10-12 12:52:00,65.2,43.3,30.16,NE,38,14.0,17.0,45,0.00,,,0.00,Wunderground v.1.15,2013-10-12 17:52:00,
2013-10-12 12:57:00,65.5,43.6,30.16,NE,44,13.0,17.0,45,0.00,,,0.00,Wunderground v.1.15,2013-10-12 17:57:00,
2013-10-12 13:03:00,66.1,42.9,30.16,ENE,60,13.0,18.0,43,0.00,,,0.00,Wunderground v.1.15,2013-10-12 18:03:00,
2013-10-12 13:08:00,66.2,42.4,30.16,NNE,32,15.0,21.0,42,0.00,,,0.00,Wunderground v.1.15,2013-10-12 18:08:00,
2013-10-12 13:14:00,66.1,41.7,30.15,NE,36,15.0,20.0,41,0.00,,,0.00,Wunderground v.1.15,2013-10-12 18:14:00,
2013-10-12 13:20:00,66.2,42.4,30.15,NNE,20,13.0,13.0,42,0.00,,,0.00,Wunderground v.1.15,2013-10-12 18:20:00,
2013-10-12 13:25:00,66.9,42.4,30.15,NE,49,12.0,17.0,41,0.00,,,0.00,Wunderground v.1.15,2013-10-12 18:25:00,
2013-10-12 13:30:00,67.0,42.5,30.15,North,11,12.0,12.0,41,0.00,,,0.00,Wunderground v.1.15,2013-10-12 18:30:00,
2013-10-12 13:35:00,67.3,43.4,30.15,NE,37,12.0,17.0,42,0.00,,,0.00,Wunderground v.1.15,2013-10-12 18:35:00,
2013-10-12 13:40:00,67.4,42.9,30.14,NE,56,12.0,16.0,41,0.00,,,0.00,Wunderground v.1.15,2013-10-12 18:40:00,
2013-10-12 13:46:00,67.8,42.6,30.14,NE,42,14.0,20.0,40,0.00,,,0.00,Wunderground v.1.15,2013-10-12 18:46:00,
2013-10-12 13:51:00,67.9,42.0,30.14,NNE,25,14.0,17.0,39,0.00,,,0.00,Wunderground v.1.15,2013-10-12 18:51:00,
2013-10-12 13:56:00,68.1,42.9,30.14,NNE,26,13.0,17.0,40,0.00,,,0.00,Wunderground v.1.15,2013-10-12 18:56:00,
2013-10-12 14:02:00,68.0,41.4,30.14,North,5,12.0,20.0,38,0.00,,,0.00,Wunderground v.1.15,2013-10-12 19:02:00,
2013-10-12 14:08:00,68.3,41.7,30.14,NNE,15,13.0,20.0,38,0.00,,,0.00,Wunderground v.1.15,2013-10-12 19:08:00,
2013-10-12 14:14:00,68.2,42.9,30.13,NNE,24,12.0,17.0,40,0.00,,,0.00,Wunderground v.1.15,2013-10-12 19:14:00,
2013-10-12 14:20:00,68.5,41.9,30.13,NNE,22,13.0,13.0,38,0.00,,,0.00,Wunderground v.1.15,2013-10-12 19:20:00,
2013-10-12 14:26:00,68.6,42.0,30.13,ENE,57,12.0,17.0,38,0.00,,,0.00,Wunderground v.1.15,2013-10-12 19:26:00,
2013-10-12 14:32:00,69.0,41.6,30.13,ENE,59,13.0,15.0,37,0.00,,,0.00,Wunderground v.1.15,2013-10-12 19:32:00,
2013-10-12 14:37:00,69.0,40.9,30.13,NE,53,13.0,16.0,36,0.00,,,0.00,Wunderground v.1.15,2013-10-12 19:37:00,
2013-10-12 14:42:00,69.1,40.3,30.13,NNE,19,13.0,17.0,35,0.00,,,0.00,Wunderground v.1.15,2013-10-12 19:42:00,
2013-10-12 14:47:00,69.0,41.6,30.13,NE,40,13.0,18.0,37,0.00,,,0.00,Wunderground v.1.15,2013-10-12 19:47:00,
2013-10-12 14:53:00,69.2,41.8,30.13,NE,35,11.0,15.0,37,0.00,,,0.00,Wunderground v.1.15,2013-10-12 19:53:00,
2013-10-12 14:58:00,69.8,40.9,30.12,NE,38,12.0,17.0,35,0.00,,,0.00,Wunderground v.1.15,2013-10-12 19:58:00,
2013-10-12 15:04:00,69.6,41.5,30.12,NE,51,13.0,21.0,36,0.00,,,0.00,Wunderground v.1.15,2013-10-12 20:04:00,
2013-10-12 15:09:00,69.7,41.5,30.12,NE,44,14.0,21.0,36,0.00,,,0.00,Wunderground v.1.15,2013-10-12 20:09:00,
2013-10-12 15:14:00,69.8,41.6,30.12,NNE,30,12.0,17.0,36,0.00,,,0.00,Wunderground v.1.15,2013-10-12 20:14:00,
2013-10-12 15:19:00,69.8,41.6,30.13,ENE,60,11.0,19.0,36,0.00,,,0.00,Wunderground v.1.15,2013-10-12 20:19:00,
2013-10-12 15:25:00,69.7,40.1,30.13,ENE,59,12.0,17.0,34,0.00,,,0.00,Wunderground v.1.15,2013-10-12 20:25:00,
2013-10-12 15:30:00,69.9,40.2,30.13,NNE,19,11.0,15.0,34,0.00,,,0.00,Wunderground v.1.15,2013-10-12 20:30:00,
2013-10-12 15:36:00,70.3,41.3,30.13,NE,53,11.0,15.0,35,0.00,,,0.00,Wunderground v.1.15,2013-10-12 20:36:00,
2013-10-12 15:41:00,70.4,41.4,30.13,NE,51,11.0,15.0,35,0.00,,,0.00,Wunderground v.1.15,2013-10-12 20:41:00,
2013-10-12 15:47:00,70.7,39.4,30.13,NE,48,12.0,16.0,32,0.00,,,0.00,Wunderground v.1.15,2013-10-12 20:47:00,
2013-10-12 15:53:00,70.6,40.9,30.13,NE,51,11.0,13.0,34,0.00,,,0.00,Wunderground v.1.15,2013-10-12 20:53:00,
2013-10-12 15:59:00,70.6,39.3,30.12,NE,40,12.0,16.0,32,0.00,,,0.00,Wunderground v.1.15,2013-10-12 20:59:00,
2013-10-12 16:04:00,70.8,38.7,30.12,ENE,62,12.0,17.0,31,0.00,,,0.00,Wunderground v.1.15,2013-10-12 21:04:00,
2013-10-12 16:10:00,70.8,39.5,30.12,NE,42,12.0,15.0,32,0.00,,,0.00,Wunderground v.1.15,2013-10-12 21:10:00,
2013-10-12 16:15:00,71.0,39.6,30.12,NE,40,12.0,18.0,32,0.00,,,0.00,Wunderground v.1.15,2013-10-12 21:15:00,
2013-10-12 16:21:00,71.0,39.6,30.12,NE,36,11.0,16.0,32,0.00,,,0.00,Wunderground v.1.15,2013-10-12 21:21:00,
2013-10-12 16:26:00,70.9,39.6,30.12,NNE,24,11.0,18.0,32,0.00,,,0.00,Wunderground v.1.15,2013-10-12 21:26:00,
2013-10-12 16:32:00,70.8,38.7,30.12,NNE,27,12.0,17.0,31,0.00,,,0.00,Wunderground v.1.15,2013-10-12 21:32:00,
2013-10-12 16:38:00,70.7,40.2,30.12,NNE,24,12.0,17.0,33,0.00,,,0.00,Wunderground v.1.15,2013-10-12 21:38:00,
2013-10-12 16:44:00,71.1,38.9,30.12,NE,47,12.0,18.0,31,0.00,,,0.00,Wunderground v.1.15,2013-10-12 21:44:00,
2013-10-12 16:49:00,71.1,38.9,30.12,NE,49,12.0,18.0,31,0.00,,,0.00,Wunderground v.1.15,2013-10-12 21:49:00,
2013-10-12 16:55:00,71.0,38.8,30.12,NE,48,11.0,14.0,31,0.00,,,0.00,Wunderground v.1.15,2013-10-12 21:55:00,
2013-10-12 17:00:00,71.1,38.1,30.12,NE,51,12.0,12.0,30,0.00,,,0.00,Wunderground v.1.15,2013-10-12 22:00:00,
2013-10-12 17:06:00,71.0,38.8,30.12,NE,38,13.0,17.0,31,0.00,,,0.00,Wunderground v.1.15,2013-10-12 22:06:00,
2013-10-12 17:12:00,70.7,39.4,30.12,NE,47,12.0,14.0,32,0.00,,,0.00,Wunderground v.1.15,2013-10-12 22:12:00,
2013-10-12 17:17:00,70.8,38.7,30.12,NE,46,11.0,15.0,31,0.00,,,0.00,Wunderground v.1.15,2013-10-12 22:17:00,
2013-10-12 17:23:00,70.8,37.8,30.12,NE,37,12.0,16.0,30,0.00,,,0.00,Wunderground v.1.15,2013-10-12 22:23:00,
2013-10-12 17:28:00,70.6,38.5,30.12,NE,46,12.0,16.0,31,0.00,,,0.00,Wunderground v.1.15,2013-10-12 22:28:00,
2013-10-12 17:34:00,70.4,37.5,30.11,NE,34,13.0,16.0,30,0.00,,,0.00,Wunderground v.1.15,2013-10-12 22:34:00,
2013-10-12 17:39:00,70.3,38.2,30.12,NNE,24,12.0,16.0,31,0.00,,,0.00,Wunderground v.1.15,2013-10-12 22:39:00,
2013-10-12 17:46:00,70.2,38.9,30.12,NE,49,11.0,18.0,32,0.00,,,0.00,Wunderground v.1.15,2013-10-12 22:46:00,
2013-10-12 17:51:00,70.1,38.9,30.12,NE,52,11.0,13.0,32,0.00,,,0.00,Wunderground v.1.15,2013-10-12 22:51:00,
2013-10-12 17:56:00,70.0,38.0,30.12,NE,40,11.0,14.0,31,0.00,,,0.00,Wunderground v.1.15,2013-10-12 22:56:00,
2013-10-12 18:01:00,69.8,37.8,30.12,NE,39,10.0,15.0,31,0.00,,,0.00,Wunderground v.1.15,2013-10-12 23:01:00,
2013-10-12 18:07:00,69.6,39.2,30.12,ENE,61,10.0,16.0,33,0.00,,,0.00,Wunderground v.1.15,2013-10-12 23:07:00,
2013-10-12 18:13:00,69.3,38.9,30.13,NE,50,10.0,16.0,33,0.00,,,0.00,Wunderground v.1.15,2013-10-12 23:13:00,
2013-10-12 18:19:00,68.9,38.6,30.13,NE,54,10.0,16.0,33,0.00,,,0.00,Wunderground v.1.15,2013-10-12 23:19:00,
2013-10-12 18:25:00,68.6,38.3,30.13,NE,49,10.0,13.0,33,0.00,,,0.00,Wunderground v.1.15,2013-10-12 23:25:00,
2013-10-12 18:31:00,68.2,38.7,30.13,ENE,59,9.0,10.0,34,0.00,,,0.00,Wunderground v.1.15,2013-10-12 23:31:00,
2013-10-12 18:36:00,67.6,38.2,30.13,NE,44,8.0,11.0,34,0.00,,,0.00,Wunderground v.1.15,2013-10-12 23:36:00,
2013-10-12 18:42:00,66.9,38.3,30.13,NE,37,7.0,9.0,35,0.00,,,0.00,Wunderground v.1.15,2013-10-12 23:42:00,
2013-10-12 18:47:00,66.2,39.1,30.13,NE,49,6.0,9.0,37,0.00,,,0.00,Wunderground v.1.15,2013-10-12 23:47:00,
2013-10-12 18:52:00,65.5,39.2,30.13,NE,47,6.0,8.0,38,0.00,,,0.00,Wunderground v.1.15,2013-10-12 23:52:00,
2013-10-12 18:57:00,64.8,39.2,30.14,NE,47,6.0,8.0,39,0.00,,,0.00,Wunderground v.1.15,2013-10-12 23:57:00,
2013-10-12 19:02:00,64.1,39.3,30.14,NE,53,5.0,5.0,40,0.00,,,0.00,Wunderground v.1.15,2013-10-13 00:02:00,
2013-10-12 23:58:00,52.3,39.7,30.25,NE,51,4.0,6.0,62,0.00,,,0.00,Wunderground v.1.15,2013-10-13 04:58:00,
2013-10-12 23:59:00,52.2,39.6,30.25,NE,46,4.0,6.0,62,0.00,,,0.00,Wunderground v.1.15,2013-10-13 04:59:00,